This demonstration page uses our WeatherBlox Daily Observations layout. Learn more.

Left ArrowRight Arrow

Hourly Observations for July 31, 2020

Temp ( °F °C ) Dew Point ( °F °C ) Humidity (%) Winds ( mph kmh ) Pressure ( in mb ) Visibility ( mi km ) Precip ( " mm )
12:51 am 00:51 Clear 93 33.9 39 3.9 15 15 N 9 15 29.68 1005 10 16.0934 0 0
1:51 am 01:51 Clear 94 34.4 41 5 16 16 NNW 8 13 29.68 1005 10 16.0934 0 0
2:51 am 02:51 Clear 88 31.1 38 3.3 17 17 Calm 29.68 1005 10 16.0934 0 0
3:51 am 03:51 Clear 82 27.8 35 1.7 18 18 Calm 29.69 1006 10 16.0934 0 0
4:51 am 04:51 Clear 77 25 38 3.3 24 24 Calm 29.72 1006 10 16.0934 0 0
5:51 am 05:51 Sunny 81 27.2 37 2.8 21 21 Calm 29.75 1007 10 16.0934 0 0
6:51 am 06:51 Sunny 85 29.4 41 5 21 21 ESE 9 15 29.79 1009 10 16.0934 0 0
7:51 am 07:51 Sunny 92 33.3 46 7.8 21 21 SSE 9 15 29.82 1010 10 16.0934 0 0
8:51 am 08:51 Sunny 94 34.4 50 10 22 22 SSE 7 11 29.83 1010 10 16.0934 0 0
9:51 am 09:51 Sunny 99 37.2 50 10 19 19 ESE 9 15 29.83 1010 10 16.0934 0 0
10:51 am 10:51 Sunny 102 38.9 52 11.1 19 19 SE 9 15 29.82 1010 10 16.0934 0 0
11:51 am 11:51 Sunny 105 40.6 53 11.7 18 18 SE 12 19 29.8 1009 10 16.0934 0 0
12:51 pm 12:51 Sunny 107 41.7 52 11.1 16 16 SE 14 22 29.78 1008 10 16.0934 0 0
1:51 pm 13:51 Sunny 108 42.2 50 10 14 14 S 14 22 29.74 1007 10 16.0934 0 0
2:51 pm 14:51 Sunny 107 41.7 51 10.6 15 15 SSW 15 24 29.72 1007 10 16.0934 0 0
3:51 pm 15:51 Sunny 106 41.1 47 8.3 14 14 S 7 11 29.7 1006 10 16.0934 0 0
4:51 pm 16:51 Sunny 105 40.6 47 8.3 14 14 W 3 6 29.7 1006 10 16.0934 0 0
5:51 pm 17:51 Sunny with Thunderstorms 107 41.7 42 5.6 11 11 NNE 8 13 29.68 1005 10 16.0934 0 0
6:08 pm 18:08 Sunny 107 41.7 45 7.2 12 12 NE 7 11 29.53 1000 10 16.0934 0 0
6:51 pm 18:51 Sunny 103 39.4 45 7.2 14 14 E 8 13 29.69 1005 10 16.0934 0 0
7:51 pm 19:51 Clear 95 35 44 6.7 17 17 E 7 11 29.69 1006 10 16.0934 0 0
8:51 pm 20:51 Clear 97 36.1 49 9.4 20 20 E 7 11 29.74 1007 10 16.0934 0 0
9:51 pm 21:51 Clear 95 35 52 11.1 23 23 ENE 9 15 29.77 1008 10 16.0934 0 0
10:01 pm 22:01 Clear with Nearby Thunderstorms 94 34.4 51 10.6 23 23 E 7 11 29.69 1006 10 16.0934 0 0
10:16 pm 22:16 Clear 93 33.9 51 10.6 24 24 ESE 6 9 29.7 1006 10 16.0934 0 0
10:51 pm 22:51 Clear 91 32.8 53 11.7 27 27 SE 13 20 29.78 1008 10 16.0934 0 0
11:51 pm 23:51 Clear 88 31.1 55 12.8 33 33 S 14 22 29.8 1009 10 16.0934 0 0

Powered by AerisWeather